CW7911 Weather Reports


time (UTC)temp
C
wind
direction
speed
KPH
gust
KPH
rain 1hr
cm
rain 24hr
cm
rain mn
cm
humidity
%
barometer
mb
20260905164809 19 295 0.0 1.6 0.00 0.00 0.00 76 1022.2
20260905164304 20 295 0.0 1.6 0.00 0.00 0.00 76 1022.5
20260905163759 20 295 0.0 0.0 0.00 0.00 0.00 76 1022.3
20260905163256 19 295 0.0 0.0 0.00 0.00 0.00 77 1022.4
20260905162752 19 295 0.0 1.6 0.00 0.00 0.00 78 1022.1
20260905162251 18 295 0.0 1.6 0.00 0.00 0.00 79 1022.3
20260905161746 18 295 1.6 1.6 0.00 0.00 0.00 79 1022.3
20260905161244 18 295 0.0 0.0 0.00 0.00 0.00 80 1022.3
20260905160743 18 295 0.0 0.0 0.00 0.00 0.00 81 1022.4
20260905160237 18 295 0.0 3.2 0.00 0.00 0.00 79 1022.1
20260905155732 18 295 0.0 1.6 0.00 0.00 0.00 79 1021.9
20260905155231 19 295 0.0 0.0 0.00 0.00 0.00 80 1022.1
20260905154725 19 295 0.0 0.0 0.00 0.00 0.00 77 1022.1
20260905154221 19 295 0.0 0.0 0.00 0.00 0.00 77 1021.7
20260905153717 19 295 0.0 0.0 0.00 0.00 0.00 76 1022.1
20260905153212 19 295 0.0 0.0 0.00 0.00 0.00 76 1021.9
20260905152707 19 295 0.0 1.6 0.00 0.00 0.00 75 1022.2
20260905152201 19 295 1.6 1.6 0.00 0.00 0.00 75 1021.7
20260905151701 20 295 0.0 1.6 0.00 0.00 0.00 73 1022.1
20260905151156 20 295 0.0 3.2 0.00 0.00 0.00 72 1021.6
20260905150652 20 295 0.0 1.6 0.00 0.00 0.00 72 1021.8
20260905150151 18 295 1.6 3.2 0.00 0.00 0.00 74 1021.6
20260905145649 19 295 1.6 1.6 0.00 0.00 0.00 75 1021.8
20260905145148 18 295 1.6 3.2 0.00 0.00 0.00 76 1021.8
20260905144638 18 295 0.0 1.6 0.00 0.00 0.00 76 1021.6
20260905144137 18 295 1.6 3.2 0.00 0.00 0.00 77 1021.7
20260905143632 18 295 0.0 1.6 0.00 0.00 0.00 78 1021.8
20260905143131 18 295 1.6 1.6 0.00 0.00 0.00 79 1021.9
20260905142625 18 295 0.0 1.6 0.00 0.00 0.00 79 1021.6
20260905142124 18 295 0.0 0.0 0.00 0.00 0.00 78 1021.8
20260905141619 18 295 0.0 1.6 0.00 0.00 0.00 78 1021.7
20260905141115 18 295 0.0 1.6 0.00 0.00 0.00 80 1021.6
20260905140610 18 295 1.6 4.8 0.00 0.00 0.00 79 1021.6
20260905140109 18 295 0.0 4.8 0.00 0.00 0.00 80 1021.5
20260905135605 18 295 1.6 3.2 0.00 0.00 0.00 80 1021.4
20260905135100 17 295 0.0 1.6 0.00 0.00 0.00 80 1021.5
20260905134554 17 295 0.0 3.2 0.00 0.00 0.00 81 1021.4
20260905134053 17 295 0.0 3.2 0.00 0.00 0.00 81 1021.4
20260905133548 17 295 1.6 3.2 0.00 0.00 0.00 82 1021.3
20260905133043 17 295 0.0 1.6 0.00 0.00 0.00 83 1021.3
20260905132543 18 295 1.6 3.2 0.00 0.00 0.00 81 1021.2
20260905132037 17 295 0.0 1.6 0.00 0.00 0.00 83 1021.1
20260905131533 17 295 1.6 3.2 0.00 0.00 0.00 83 1021.2
20260905131028 17 295 0.0 0.0 0.00 0.00 0.00 84 1021.2
20260905130527 17 295 0.0 0.0 0.00 0.00 0.00 85 1021.0
20260905130023 17 295 0.0 0.0 0.00 0.00 0.00 86 1020.9
20260905125522 17 295 0.0 0.0 0.00 0.00 0.00 85 1020.9
20260905125018 17 295 0.0 0.0 0.00 0.00 0.00 86 1020.7
20260905124514 17 295 0.0 0.0 0.00 0.00 0.00 86 1021.0
20260905124009 17 295 0.0 0.0 0.00 0.00 0.00 87 1020.8
20260905123505 17 295 0.0 0.0 0.00 0.00 0.00 88 1020.7
20260905123001 16 295 0.0 0.0 0.00 0.00 0.00 89 1020.8
20260905122500 16 295 0.0 0.0 0.00 0.00 0.00 91 1020.7
20260905121955 16 295 0.0 0.0 0.00 0.00 0.00 91 1020.7
20260905121451 16 295 0.0 0.0 0.00 0.00 0.00 92 1020.6
20260905120950 16 295 0.0 0.0 0.00 0.00 0.00 93 1020.6
20260905120439 16 295 0.0 0.0 0.00 0.00 0.00 93 1020.8
20260905115934 15 295 0.0 0.0 0.00 0.00 0.00 94 1020.6
20260905115433 15 295 0.0 0.0 0.00 0.00 0.00 94 1020.5
20260905114929 15 295 0.0 0.0 0.00 0.00 0.00 94 1020.6
20260905114428 15 295 0.0 0.0 0.00 0.00 0.00 94 1020.4
20260905113921 15 295 0.0 0.0 0.00 0.00 0.00 94 1020.3
20260905113416 15 295 0.0 0.0 0.00 0.00 0.00 94 1020.4
20260905112912 15 295 0.0 0.0 0.00 0.00 0.00 94 1020.3
20260905112408 15 295 0.0 0.0 0.00 0.00 0.00 94 1020.3
20260905111903 15 295 0.0 0.0 0.00 0.00 0.00 94 1020.2
20260905111402 15 295 0.0 0.0 0.00 0.00 0.00 94 1020.3
20260905110902 15 295 0.0 0.0 0.00 0.00 0.00 94 1020.2
20260905110356 15 295 0.0 0.0 0.00 0.00 0.00 94 1020.4
20260905105852 14 295 0.0 0.0 0.00 0.00 0.00 94 1020.3
20260905105350 14 295 0.0 0.0 0.00 0.00 0.00 94 1020.2
20260905104845 14 295 0.0 0.0 0.00 0.00 0.00 94 1020.3
20260905104342 14 295 0.0 0.0 0.00 0.00 0.00 94 1020.1
20260905103841 14 295 0.0 0.0 0.00 0.00 0.00 94 1020.1
20260905103337 14 295 0.0 0.0 0.00 0.00 0.00 94 1020.0
20260905102832 14 295 0.0 0.0 0.00 0.00 0.00 94 1019.9
20260905102329 13 295 0.0 0.0 0.00 0.00 0.00 94 1019.9
20260905101829 13 295 0.0 0.0 0.00 0.00 0.00 94 1019.8
20260905101327 13 295 0.0 0.0 0.00 0.00 0.00 94 1019.8
20260905100821 13 295 0.0 0.0 0.00 0.00 0.00 94 1020.0
20260905100317 13 295 0.0 0.0 0.00 0.00 0.00 94 1020.1
20260905095816 13 295 0.0 0.0 0.00 0.00 0.00 94 1020.0
20260905095311 13 295 0.0 0.0 0.00 0.00 0.00 94 1019.9
20260905094805 13 295 0.0 0.0 0.00 0.00 0.00 94 1020.0
20260905094301 13 295 0.0 0.0 0.00 0.00 0.00 94 1019.8
20260905093800 13 295 0.0 0.0 0.00 0.00 0.00 94 1019.5
20260905093256 13 295 0.0 0.0 0.00 0.00 0.00 94 1019.6
20260905092752 13 295 0.0 0.0 0.00 0.00 0.00 94 1019.8
20260905092247 13 295 0.0 0.0 0.00 0.00 0.00 94 1019.5
20260905091747 13 295 0.0 0.0 0.00 0.00 0.00 94 1019.6
20260905091242 13 295 0.0 0.0 0.00 0.00 0.00 94 1019.5
20260905090740 13 295 0.0 0.0 0.00 0.00 0.00 94 1019.4
20260905090236 13 295 0.0 0.0 0.00 0.00 0.00 94 1019.3
20260905085735 13 295 0.0 0.0 0.00 0.00 0.00 94 1019.2
20260905085230 13 295 0.0 0.0 0.00 0.00 0.00 94 1019.2
20260905084725 13 295 0.0 0.0 0.00 0.00 0.00 94 1019.4
20260905084224 13 295 0.0 0.0 0.00 0.00 0.00 94 1019.2
20260905083719 13 295 0.0 0.0 0.00 0.00 0.00 94 1019.2
20260905083215 13 295 0.0 0.0 0.00 0.00 0.00 94 1019.2
20260905082711 13 295 0.0 0.0 0.00 0.00 0.00 94 1019.1
20260905082206 13 295 0.0 0.0 0.00 0.00 0.00 94 1019.2
20260905081701 13 295 0.0 0.0 0.00 0.00 0.00 94 1019.1
20260905081156 13 295 0.0 0.0 0.00 0.00 0.00 94 1019.0
20260905080655 13 295 0.0 0.0 0.00 0.00 0.00 94 1018.8
20260905080155 13 295 0.0 0.0 0.00 0.00 0.00 94 1018.9
20260905075654 13 295 0.0 0.0 0.00 0.00 0.00 94 1018.7
20260905075154 13 295 0.0 0.0 0.00 0.00 0.00 94 1018.9
20260905074652 13 295 0.0 0.0 0.00 0.00 0.00 94 1019.1
20260905074149 13 295 0.0 0.0 0.00 0.00 0.00 94 1018.9
20260905073644 13 295 0.0 0.0 0.00 0.00 0.00 94 1018.9
20260905073140 13 295 0.0 0.0 0.00 0.00 0.00 94 1018.9
20260905072639 13 295 0.0 0.0 0.00 0.00 0.00 94 1019.0
20260905072134 13 295 0.0 0.0 0.00 0.00 0.00 94 1019.0
20260905071631 13 295 0.0 0.0 0.00 0.00 0.00 94 1018.9
20260905071126 13 295 0.0 0.0 0.00 0.00 0.00 94 1018.9
20260905070621 13 295 0.0 0.0 0.00 0.00 0.00 94 1018.9
20260905070117 14 295 0.0 0.0 0.00 0.00 0.00 94 1018.9
20260905065615 14 295 0.0 0.0 0.00 0.00 0.00 94 1019.2
20260905065110 14 295 0.0 0.0 0.00 0.00 0.00 94 1019.4
20260905064605 14 295 0.0 0.0 0.00 0.00 0.00 94 1019.2
20260905064100 14 295 0.0 0.0 0.00 0.00 0.00 94 1019.4
20260905063553 14 295 0.0 0.0 0.00 0.00 0.00 94 1019.5
20260905063050 14 295 0.0 0.0 0.00 0.00 0.00 94 1019.3
20260905062544 14 295 0.0 0.0 0.00 0.00 0.00 94 1019.1
20260905062039 14 295 0.0 0.0 0.00 0.00 0.00 94 1019.1
20260905061534 14 295 0.0 0.0 0.00 0.00 0.00 94 1019.2
20260905061033 14 295 0.0 0.0 0.00 0.00 0.00 94 1019.1
20260905060529 14 295 0.0 0.0 0.00 0.00 0.00 94 1019.2
20260905060025 14 295 0.0 0.0 0.00 0.00 0.00 94 1019.3
20260905055523 14 295 0.0 0.0 0.00 0.00 0.00 94 1019.4
20260905055018 14 295 0.0 0.0 0.00 0.00 0.00 94 1019.3
20260905054514 14 295 0.0 0.0 0.00 0.00 0.00 94 1019.4
20260905054009 14 295 0.0 0.0 0.00 0.00 0.00 94 1019.4
20260905053503 14 295 0.0 0.0 0.00 0.00 0.00 94 1019.3
20260905053000 14 295 0.0 0.0 0.00 0.00 0.00 94 1019.5
20260905052459 14 295 0.0 0.0 0.00 0.00 0.00 94 1019.3
20260905051958 14 295 0.0 0.0 0.00 0.00 0.00 94 1019.4
20260905051454 14 295 0.0 0.0 0.00 0.00 0.00 94 1019.5
20260905050951 14 295 0.0 0.0 0.00 0.00 0.00 93 1019.4
20260905050447 14 295 0.0 0.0 0.00 0.00 0.00 93 1019.5
20260905045943 15 295 0.0 0.0 0.00 0.00 0.00 93 1019.7
20260905045437 15 295 0.0 0.0 0.00 0.00 0.00 93 1019.4
20260905044932 15 295 0.0 0.0 0.00 0.00 0.00 93 1019.4
20260905044422 15 295 0.0 0.0 0.00 0.00 0.00 93 1019.4
20260905043921 15 295 0.0 0.0 0.00 0.00 0.00 92 1019.2
20260905043420 15 295 0.0 0.0 0.00 0.00 0.00 92 1019.3
20260905042915 15 295 0.0 0.0 0.00 0.00 0.00 92 1019.2
20260905042410 15 295 0.0 0.0 0.00 0.00 0.00 92 1019.4
20260905041905 15 295 0.0 0.0 0.00 0.00 0.00 92 1019.3
20260905041401 15 295 0.0 0.0 0.00 0.00 0.00 92 1019.4
20260905040900 15 295 0.0 0.0 0.00 0.00 0.00 92 1019.3
20260905040355 15 295 0.0 0.0 0.00 0.00 0.00 92 1019.4
20260905035854 15 295 0.0 0.0 0.00 0.00 0.00 92 1019.2
20260905035350 15 295 0.0 0.0 0.00 0.00 0.00 93 1019.5
20260905034846 15 295 0.0 0.0 0.00 0.00 0.00 92 1019.5
20260905034342 15 295 0.0 0.0 0.00 0.00 0.00 92 1019.4
20260905033840 15 295 0.0 0.0 0.00 0.00 0.00 92 1019.4
20260905033336 15 295 0.0 0.0 0.00 0.00 0.00 92 1019.4
20260905032835 15 295 0.0 0.0 0.00 0.00 0.00 92 1019.4
20260905032331 15 295 0.0 0.0 0.00 0.00 0.00 92 1019.3
20260905031826 15 295 0.0 0.0 0.00 0.00 0.00 91 1019.5
20260905031321 15 295 0.0 0.0 0.00 0.00 0.00 91 1019.6
20260905030816 15 295 0.0 0.0 0.00 0.00 0.00 91 1019.6
20260905030312 15 295 0.0 0.0 0.00 0.00 0.00 90 1019.5
20260905025811 15 295 0.0 0.0 0.00 0.00 0.00 90 1019.6
20260905025306 16 295 0.0 0.0 0.00 0.00 0.00 90 1019.6
20260905024803 16 295 0.0 0.0 0.00 0.00 0.00 89 1019.6
20260905024258 16 295 0.0 0.0 0.00 0.00 0.00 89 1019.4
20260905023752 16 295 0.0 0.0 0.00 0.00 0.00 89 1019.7
20260905023242 16 295 0.0 0.0 0.00 0.00 0.00 89 1019.5
20260905022741 16 295 0.0 0.0 0.00 0.00 0.00 88 1019.6
20260905022237 16 295 0.0 0.0 0.00 0.00 0.00 88 1019.6
20260905021731 16 295 0.0 0.0 0.00 0.00 0.00 88 1019.7
20260905021226 16 295 0.0 0.0 0.00 0.00 0.00 88 1019.9
20260905020721 16 295 0.0 0.0 0.00 0.00 0.00 88 1019.7
20260905020216 16 295 0.0 0.0 0.00 0.00 0.00 88 1020.0
20260905015714 16 295 0.0 0.0 0.00 0.00 0.00 88 1019.9
20260905015209 17 295 0.0 0.0 0.00 0.00 0.00 87 1020.1
20260905014707 17 295 0.0 0.0 0.00 0.00 0.00 87 1019.8
20260905014203 17 295 0.0 0.0 0.00 0.00 0.00 87 1019.6
20260905013659 17 295 0.0 0.0 0.00 0.00 0.00 86 1019.9
20260905013155 17 295 0.0 0.0 0.00 0.00 0.00 86 1019.9
20260905012650 17 295 0.0 0.0 0.00 0.00 0.00 85 1019.9
20260905012146 17 295 0.0 0.0 0.00 0.00 0.00 85 1019.9
20260905011643 17 295 0.0 0.0 0.00 0.00 0.00 85 1019.8
20260905011138 17 295 0.0 0.0 0.00 0.00 0.00 85 1019.9
20260905010632 17 295 0.0 0.0 0.00 0.00 0.00 85 1020.0
20260905010128 17 295 0.0 0.0 0.00 0.00 0.00 86 1019.9
20260905005624 18 295 0.0 0.0 0.00 0.00 0.00 86 1019.9
20260905005119 18 295 0.0 0.0 0.00 0.00 0.00 85 1019.8
20260905004614 18 295 0.0 0.0 0.00 0.00 0.00 84 1019.5
20260905004109 18 295 0.0 0.0 0.00 0.00 0.00 84 1019.7
20260905003604 18 295 0.0 0.0 0.00 0.00 0.00 84 1019.7
20260905003100 18 295 0.0 0.0 0.00 0.00 0.00 84 1020.0
20260905002555 18 295 0.0 0.0 0.00 0.00 0.00 83 1019.6
20260905002050 18 295 0.0 0.0 0.00 0.00 0.00 83 1019.9
20260905001545 18 295 0.0 0.0 0.00 0.00 0.00 83 1019.8
20260905001045 18 295 0.0 0.0 0.00 0.00 0.00 85 1019.7
20260905000540 18 295 0.0 0.0 0.00 0.00 0.00 85 1019.6
20260905000036 18 295 0.0 0.0 0.00 0.00 0.00 83 1019.6
20260904235531 18 295 0.0 0.0 0.00 0.00 0.00 81 1019.7
20260904235031 18 295 0.0 0.0 0.00 0.00 0.00 80 1019.6
20260904234530 19 295 0.0 0.0 0.00 0.00 0.00 80 1019.6
20260904234027 19 295 0.0 0.0 0.00 0.00 0.00 79 1019.6
20260904233521 19 295 0.0 0.0 0.00 0.00 0.00 79 1019.3
20260904233018 19 295 0.0 0.0 0.00 0.00 0.00 79 1019.5
20260904232514 19 295 0.0 0.0 0.00 0.00 0.00 79 1019.4
20260904232010 20 295 0.0 0.0 0.00 0.00 0.00 79 1019.4
20260904231506 20 295 0.0 0.0 0.00 0.00 0.00 78 1019.2
20260904231001 20 295 0.0 0.0 0.00 0.00 0.00 78 1019.3
20260904230459 20 295 0.0 0.0 0.00 0.00 0.00 78 1019.4
20260904225955 20 295 0.0 0.0 0.00 0.00 0.00 80 1019.3
20260904225452 20 295 0.0 0.0 0.00 0.00 0.00 77 1019.3
20260904224946 20 295 0.0 0.0 0.00 0.00 0.00 77 1019.2
20260904224443 21 295 1.6 3.2 0.00 0.00 0.00 76 1019.4
20260904223942 21 295 0.0 4.8 0.00 0.00 0.00 75 1019.0
20260904223441 21 295 0.0 0.0 0.00 0.00 0.00 74 1019.1
20260904222937 21 295 0.0 0.0 0.00 0.00 0.00 74 1019.0
20260904222433 21 295 0.0 0.0 0.00 0.00 0.00 73 1019.2
20260904221932 21 295 0.0 0.0 0.00 0.00 0.00 71 1019.0
20260904221427 21 295 0.0 0.0 0.00 0.00 0.00 69 1019.3
20260904220923 21 295 0.0 0.0 0.00 0.00 0.00 68 1018.9
20260904220422 22 295 0.0 3.2 0.00 0.00 0.00 66 1019.3
20260904215917 22 295 0.0 0.0 0.00 0.00 0.00 65 1019.2
20260904215412 22 295 0.0 3.2 0.00 0.00 0.00 66 1019.2
20260904214908 22 295 1.6 4.8 0.00 0.00 0.00 63 1019.2
20260904214404 22 295 0.0 0.0 0.00 0.00 0.00 71 1019.3
20260904213902 22 295 0.0 0.0 0.00 0.00 0.00 64 1019.1
20260904213357 22 295 0.0 0.0 0.00 0.00 0.00 66 1019.0
20260904212853 22 295 0.0 1.6 0.00 0.00 0.00 63 1018.7
20260904212352 22 295 0.0 0.0 0.00 0.00 0.00 66 1019.1
20260904211848 22 295 0.0 0.0 0.00 0.00 0.00 65 1019.2
20260904211343 22 295 0.0 0.0 0.00 0.00 0.00 64 1019.1
20260904210838 22 295 0.0 1.6 0.00 0.00 0.00 68 1019.3
20260904210332 23 295 0.0 1.6 0.00 0.00 0.00 66 1019.1
20260904205829 23 295 0.0 0.0 0.00 0.00 0.00 66 1019.3
20260904205324 23 295 0.0 1.6 0.00 0.00 0.00 62 1018.9
20260904204821 23 295 1.6 3.2 0.00 0.00 0.00 59 1018.9
20260904204316 23 295 0.0 0.0 0.00 0.00 0.00 65 1019.1
20260904203812 23 295 0.0 1.6 0.00 0.00 0.00 59 1018.9
20260904203308 24 295 1.6 1.6 0.00 0.00 0.00 62 1018.9
20260904202804 24 295 3.2 4.8 0.00 0.00 0.00 59 1019.1
20260904202300 25 295 0.0 1.6 0.00 0.00 0.00 61 1018.8
20260904201756 25 295 0.0 3.2 0.00 0.00 0.00 57 1019.0
20260904201255 25 295 0.0 3.2 0.00 0.00 0.00 59 1018.7
20260904200750 25 295 1.6 4.8 0.00 0.00 0.00 55 1018.6
20260904200244 25 295 0.0 3.2 0.00 0.00 0.00 56 1018.9
20260904195743 25 295 0.0 1.6 0.00 0.00 0.00 60 1019.0
20260904195242 24 295 0.0 1.6 0.00 0.00 0.00 59 1018.9
20260904194737 23 295 1.6 3.2 0.00 0.00 0.00 60 1019.0
20260904194236 22 295 0.0 0.0 0.00 0.00 0.00 66 1019.0
20260904193732 23 295 0.0 0.0 0.00 0.00 0.00 62 1018.7
20260904193228 23 250 0.0 0.0 0.00 0.00 0.00 65 1018.9
20260904192723 23 250 0.0 1.6 0.00 0.00 0.00 67 1018.8
20260904192218 22 250 0.0 0.0 0.00 0.00 0.00 73 1019.0
20260904191715 22 250 0.0 0.0 0.00 0.00 0.00 77 1019.0
20260904191211 22 250 0.0 0.0 0.00 0.00 0.00 77 1019.1
20260904190707 22 250 0.0 0.0 0.00 0.00 0.00 77 1019.0
20260904190203 22 250 0.0 0.0 0.00 0.00 0.00 75 1019.2
20260904185659 22 250 0.0 0.0 0.00 0.00 0.00 72 1019.4
20260904185153 22 250 0.0 0.0 0.00 0.00 0.00 72 1019.4
20260904184652 23 250 0.0 1.6 0.00 0.00 0.00 70 1019.3
20260904184148 23 150 0.0 0.0 0.00 0.00 0.00 69 1019.2
20260904183643 24 150 0.0 1.6 0.00 0.00 0.00 71 1019.1
20260904183137 23 150 0.0 0.0 0.00 0.00 0.00 73 1019.1
20260904182633 23 150 0.0 0.0 0.00 0.00 0.00 71 1019.0
20260904182128 24 150 0.0 0.0 0.00 0.00 0.00 73 1018.8
20260904181623 24 150 0.0 1.6 0.00 0.00 0.00 70 1019.1
20260904181118 23 150 0.0 0.0 0.00 0.00 0.00 71 1018.7
20260904180613 23 150 0.0 0.0 0.00 0.00 0.00 73 1019.2
20260904180108 23 150 0.0 4.8 0.00 0.00 0.00 67 1019.1
20260904175602 23 150 0.0 0.0 0.00 0.00 0.00 69 1019.2
20260904175100 23 150 0.0 4.8 0.00 0.00 0.00 71 1019.1
20260904174555 23 150 0.0 0.0 0.00 0.00 0.00 81 1019.0
20260904174052 23 150 0.0 1.6 0.00 0.00 0.00 80 1019.1
20260904173551 23 150 0.0 0.0 0.00 0.00 0.00 73 1019.1
20260904173047 23 150 0.0 0.0 0.00 0.00 0.00 76 1019.1
20260904172543 23 150 0.0 0.0 0.00 0.00 0.00 75 1019.3
20260904172042 23 150 0.0 0.0 0.00 0.00 0.00 79 1019.2
20260904171537 23 150 0.0 0.0 0.00 0.00 0.00 76 1019.2
20260904171033 23 150 0.0 0.0 0.00 0.00 0.00 76 1019.5
20260904170528 23 150 0.0 1.6 0.00 0.00 0.00 78 1019.6
20260904170025 22 150 0.0 0.0 0.00 0.00 0.00 81 1019.5
20260904165523 22 150 0.0 0.0 0.00 0.00 0.00 84 1019.6